Zurück zum Katalog

STARLINK-38163

AktivKommunikationSSO
NORAD 100250·PAYLOAD·🇺🇸 United States

Gestartet Aug 8, 2026 von Vandenberg Space Force Base

Loading…

Nächste Überflüge (nächste 24 Stunden)

TLE

AktuellSource: Space-Track

Epoche: Sep 14, 2026, 14:24 UTC

1 A0250U 26181E   26257.60014887  .00166912  00000-0  10957-2 0  9990
2 A0250  97.2826 300.7802 0001144  49.4414 310.6950 15.75243405  7028

Verfolge STARLINK-38163 in Echtzeit mit AllMySat

Download on the App Store